Weather History for Newport, RI

Change the Weather History Date:

Thursday, October 24, 2013

  Actual Average Record
Temperature  
Mean Temperature 48 °F -  
Max Temperature 53 °F 60 °F 72 °F (1990)
Min Temperature 42 °F 43 °F 28 °F (1969)
Degree Days  
Heating Degree Days 18    
Moisture  
Dew Point 30 °F    
Average Humidity 54    
Maximum Humidity 73    
Minimum Humidity 32    
Precipitation  
Precipitation 0.00 in - - ()
Sea Level Pressure  
Sea Level Pressure 29.81 in    
Wind  
Wind Speed 9 mph (WNW)    
Max Wind Speed 16 mph    
Max Gust Speed 22 mph    
Visibility 10 miles    
Events      
Averages and records for this station are not official NWS values.
T = Trace of Precipitation, MM = Missing Value Source: NWS Daily Summary

Daily Weather History Graph

Daily Weather History Graph

Search for Another Location

Airport:

Trip Planner

Search our weather history database for the weather conditions in past years. The results will help you decide how hot, cold, wet, or windy it might be!

Date:

Astronomy

Oct. 24, 2013 Rise Set
Actual Time 7:07 AM EDT 5:50 PM EDT
Civil Twilight 6:39 AM EDT 6:18 PM EDT
Nautical Twilight 6:06 AM EDT 6:50 PM EDT
Astronomical Twilight 5:34 AM EDT 7:23 PM EDT
Moon 10:10 PM EDT (10/24) 12:08 PM EDT (10/24)
Length of Visible Light 11h 39m
Length of Day
10h 42m
Waning Gibbous, 71% of the Moon is Illuminated
Oct 24
Waning Gibbous
Oct 26
Last Quarter
Nov 3
New
Nov 10
First Quarter
Nov 17
Full

Hourly Weather History & Observations

Time (EDT) Temp. Windchill Dew Point Humidity Pressure Visibility Wind Dir Wind Speed Gust Speed Precip Events Conditions
12:53 AM 46.9 °F - 35.1 °F 63% 29.67 in 10.0 mi WNW 9.2 mph - N/A   Overcast
1:53 AM 46.0 °F 41.0 °F 35.1 °F 66% 29.68 in 10.0 mi WNW 10.4 mph 18.4 mph N/A   Scattered Clouds
2:53 AM 45.0 °F 38.9 °F 35.1 °F 68% 29.69 in 10.0 mi WNW 12.7 mph 19.6 mph N/A   Clear
3:53 AM 44.1 °F 38.6 °F 35.1 °F 71% 29.70 in 10.0 mi WNW 10.4 mph - N/A   Clear
4:53 AM 44.1 °F 38.6 °F 36.0 °F 73% 29.73 in 10.0 mi WNW 10.4 mph 16.1 mph N/A   Clear
5:53 AM 43.0 °F 37.2 °F 34.0 °F 71% 29.76 in 10.0 mi WNW 10.4 mph 21.9 mph N/A   Clear
6:53 AM 42.1 °F 37.7 °F 34.0 °F 73% 29.78 in 10.0 mi NW 6.9 mph - N/A   Clear
7:53 AM 42.1 °F 36.6 °F 33.1 °F 70% 29.81 in 10.0 mi WNW 9.2 mph 18.4 mph N/A   Clear
8:53 AM 44.1 °F 38.1 °F 32.0 °F 63% 29.84 in 10.0 mi WNW 11.5 mph - N/A   Clear
9:53 AM 46.0 °F 41.0 °F 32.0 °F 58% 29.85 in 10.0 mi WNW 10.4 mph 17.3 mph N/A   Clear
10:53 AM 46.9 °F - 30.0 °F 52% 29.86 in 10.0 mi WNW 10.4 mph 16.1 mph N/A   Clear
11:53 AM 48.0 °F - 28.9 °F 48% 29.83 in 10.0 mi Variable 5.8 mph - N/A   Partly Cloudy
12:53 PM 51.1 °F - 25.0 °F 36% 29.81 in 10.0 mi West 8.1 mph 21.9 mph N/A   Clear
1:53 PM 51.1 °F - 23.0 °F 33% 29.81 in 10.0 mi West 16.1 mph 21.9 mph N/A   Clear
2:53 PM 53.1 °F - 24.1 °F 32% 29.80 in 10.0 mi West 11.5 mph 20.7 mph N/A   Scattered Clouds
3:53 PM 52.0 °F - 25.0 °F 35% 29.81 in 10.0 mi West 10.4 mph 17.3 mph N/A   Partly Cloudy
4:53 PM 51.1 °F - 24.1 °F 35% 29.83 in 10.0 mi West 8.1 mph 19.6 mph N/A   Partly Cloudy
5:53 PM 48.9 °F - 26.1 °F 41% 29.85 in 10.0 mi West 4.6 mph - N/A   Clear
6:53 PM 48.0 °F - 26.1 °F 42% 29.86 in 10.0 mi Calm Calm - N/A   Clear
7:53 PM 46.9 °F - 28.0 °F 48% 29.88 in 10.0 mi SW 3.5 mph - N/A   Clear
8:53 PM 46.9 °F - 28.0 °F 48% 29.89 in 10.0 mi Calm Calm - N/A   Clear
9:53 PM 46.0 °F 44.8 °F 28.0 °F 50% 29.91 in 10.0 mi Variable 3.5 mph - N/A   Mostly Cloudy
10:53 PM 45.0 °F 41.8 °F 28.0 °F 52% 29.91 in 10.0 mi Variable 5.8 mph - N/A   Clear
11:53 PM 43.0 °F 38.8 °F 28.0 °F 56% 29.92 in 10.0 mi WNW 6.9 mph - N/A   Clear